Showing default

ROBUSTA-3A, 60243

Orbit data source: Space-Track

ROBUSTA-3A, 60243 is a payload satellite owned by Montpellier (FR) in LEO that was launched on Tue, 09 Jul 2024 UTC via an ARIANE 62 launch vehicle from the French Guiana (FRGUI). Payload-class satellites include a variety of spacecraft equipped with specific instruments for various scientific and technological missions. These include communications satellites like Starlink; space stations such as the ISS; scientific satellites like the Hubble; Earth observation satellites from companies like Planet Labs, Umbra, and HawkEye 360; GPS; miniature CubeSats for education and research; and military/defense satellites.

Loading next visibility...
Identifier
60243, 2024-128J
Orbit
LEO
Country
Flag of FRFR
Related business
Manufacturer
Montpellier
Mission
Operational Amateur Technology
Bus & Motor
CUBESAT 3U, Unknown motor
Mass
5 kg wet, 5 kg dry
Launch date (UTC)
2024-07-09 (1 year ago)
Launch vehicle
ARIANE 62
Launch site
French Guiana (FRGUI)
Object type
Payload
Rocket body
Debris
Shape & HBR
Box + 4 Pan, 1.0 m
Radar Cross Section
0.072 m², Small (<0.1 m²)

Expand to show TLE details & history
Last TLE update: 21 hours ago

TLE from 21 hours ago
0 ROBUSTA-3A
1 60243U 24128J   25348.72170913  .00006847  00000-0  43771-3 0  9994
2 60243  61.9859 138.9935 0056178  91.2694 269.4836 15.08252628 78564
Epoch: 2025-12-14T17:19Z
TLE epoch observation values (Epoch: 2025-12-14T17:19:15.668Z)
Latitude
-0.00007°
Longitude
155.54762°
Altitude
543.883 km
Speed
7.591 km/s
True Right ascension
09h 15m 58s
True Declination
0° 00' 00"
Sunlit
Object was in full shadow at epoch
Visualization orbit readout
Latitude
Unknown
Longitude
Unknown
Altitude
Unknown
Speed
Unknown
Apparent Right ascension
Unknown
Apparent Declination
Unknown
Sunlit
N/A
Visualization observer readout
Local Sidereal Time
12:47:44
Azimuth
Unknown
Elevation
Unknown
Doppler factor
Unknown
Orbital elements
Apogee altitude
579.335 km
Perigee altitude
501.6 km
Semi-major axis
6,918.604 km
Eccentricity
0.00562
Inclination
61.9859°
RAAN
138.9935°
Arg. of periapsis
91.2694°
True anomaly
268.83993°
Mean anomaly
269.4836°
Eccentric anomaly
269.16176°
Mean motion
3.77151 °/min
Orbital period
95.45 mins
BSTAR
0.00043771
Loading maneuver chart data...
Computing Atmospheric mass density...
Loading historical data...
Loading historical data...
Loading historical data...
Loading historical data...
Loading historical data...
Loading historical data...
Loading historical data...

Documentation

Showing up to 5 results
|